Regional Weather Roundup
Issued by NWS

Home | Current Version | Previous Version | Text Only | Print | Product List | Glossary Off
Versions: 1 2 3 4 5 6 7 8 9 10 11 12 13 14 15 16 17 18 19 20 21 22 23 24 25 26 27 28 29 30 31 32 33 34 35 36 37 38 39 40 41 42 43 44 45 46 47 48 49 50

000
ASUS43 KLSX 270159
RWRMO

WEATHER SUMMARY FOR MISSOURI
NATIONAL WEATHER SERVICE SPRINGFIELD MO
900 PM CDT THU MAR 26 2015

NOTE: "FAIR" INDICATES FEW OR NO CLOUDS BELOW 12,000 FEET WITH NO
       SIGNIFICANT WEATHER AND/OR OBSTRUCTIONS TO VISIBILITY.
       CURRENT SKY AND/OR WEATHER CONDITIONS ARE NOT AVAILABLE FOR
       CHILLICOTHE AND FARMINGTON.

MOZ001>031-035>038-043-044-053-054-270300-
...NORTHERN AND WESTERN MISSOURI...

CITY           SKY/WX    TMP DP  RH WIND       PRES   REMARKS
KANSAS CTY INT CLOUDY    45  29  53 NW6       30.10R
KANSAS C DTWN  CLOUDY    49  26  41 N9        30.10R
LEE`S SUMMIT   CLOUDY    47  28  47 N9        30.10R
ST JOSEPH      LGT RAIN  40  35  83 N13       30.14R
CHILLICOTHE      N/A     47  27  45 N10G23    30.11R
KIRKSVILLE     CLOUDY    42  27  55 N9        30.09R

$$
MOZ066>068-077>081-088>096-101>105-270300-
...SOUTHWEST MISSOURI...

CITY           SKY/WX    TMP DP  RH WIND       PRES   REMARKS
SPRINGFIELD    CLEAR     45  26  47 CALM      30.07S
JOPLIN         CLEAR     46  28  49 S5        30.08F

$$
MOZ032>034-039>042-045>050-055>058-069>072-270300-
...CENTRAL MISSOURI...

CITY           SKY/WX    TMP DP  RH WIND       PRES   REMARKS
COLUMBIA       MOCLDY    43  28  55 NW5       30.07S
JEFFERSON CITY PTCLDY    42  29  59 CALM      30.08S
ROLLA          CLEAR     39  29  67 MISG      30.06R
SEDALIA        CLOUDY    46  28  49 CALM      30.09R
OSAGE BEACH    CLEAR     43  27  52 NE3       30.08S

$$
MOZ051-052-059>065-270300-
...EAST CENTRAL MISSOURI...

CITY           SKY/WX    TMP DP  RH WIND       PRES   REMARKS
ST LOUIS INTL  FAIR      45  26  47 NW3       30.08R
SPIRIT OF STL  CLEAR     37  30  75 W5        30.07R
ST CHARLES     CLEAR     41  30  65 N5        30.07R

$$
MOZ072>076-082>087-097>100-106>115-270300-
...SOUTH CENTRAL AND SOUTHEAST MISSOURI...

CITY           SKY/WX    TMP DP  RH WIND       PRES   REMARKS
CAPE GIRARDEAU CLEAR     41  33  73 NE5       30.05S
FARMINGTON     CLEAR     43  25  49 N5        30.09S
POPLAR BLUFF   CLEAR     43  36  76 CALM      30.05R
WEST PLAINS    CLEAR     44  25  47 MISG      30.07R

$$


USA.gov is the U.S. government's official web portal to all federal, state and local government web resources and services.